Regional Weather Roundup
Issued by NWS

Home | Current Version | Previous Version | Graphics & Text | Print | Product List | Glossary On
Versions: 1 2 3 4 5 6 7 8 9 10 11 12 13 14 15 16 17 18 19 20 21 22 23 24 25 26 27 28 29 30 31 32 33 34 35 36 37 38 39 40 41 42 43 44 45 46 47 48 49 50
000
ASUS43 KOAX 082110
RWRNE

WEATHER ROUNDUP FOR NEBRASKA
NATIONAL WEATHER SERVICE OMAHA NE
300 PM CST THU DEC 08 2016

NOTES: SATELLITE DATA IS BEING USED TO AUGMENT CLOUD COVER ABOVE
       12000 FEET.
       "FAIR" INDICATES FEW OR NO CLOUDS BELOW 12,000 FEET WITH NO
       SIGNIFICANT WEATHER AND/OR OBSTRUCTIONS TO VISIBILITY.

  * THESE STATIONS DO NOT REPORT WEATHER SUCH AS RAIN...SNOW OR FOG.

NEZ001>004-019>022-054>056-082200-
NEBRASKA PANHANDLE

CITY           SKY/WX    TMP DP  RH WIND       PRES   REMARKS
SCOTTSBLUFF    SUNNY     17  -2  43 E7        30.41F WCI   8
ALLIANCE       SUNNY     17  -1  45 W5        30.42F WCI  10
CHADRON        SUNNY     16  -2  45 NE7       30.48F WCI   6
KIMBALL        SUNNY     15   6  66 S9        30.35F WCI   3
SIDNEY         MOSUNNY   16   5  62 S7        30.41F WCI   6
$$

NEZ057>060-069>072-079>082-082200-
SOUTHWEST NEBRASKA

CITY           SKY/WX    TMP DP  RH WIND       PRES   REMARKS
NORTH PLATTE   SUNNY     22  -2  35 N7        30.54F WCI  13
IMPERIAL       SUNNY     17   1  49 N3        30.51F
LEXINGTON      SUNNY     23   1  38 N5        30.57F WCI  17
MCCOOK         SUNNY     17   4  56 CALM      30.58F
OGALLALA       SUNNY     19   2  49 CALM      30.50F
$$

NEZ005>010-023>029-035>040-094-082200-
NORTH CENTRAL NEBRASKA

CITY           SKY/WX    TMP DP  RH WIND       PRES   REMARKS
VALENTINE      SUNNY     15  -3  44 NW13      30.56S WCI   1
AINSWORTH      SUNNY     16   0  49 NW9       30.55F WCI   4
BROKEN BOW     SUNNY     22   0  38 NW9       30.55F WCI  12
O`NEILL        SUNNY     20   3  47 NW15      30.58S WCI   6
ORD            SUNNY     22  -1  36 NW12      30.57S WCI  10
THEDFORD       SUNNY     19  -1  42 NW6       30.53F WCI  11
$$

NEZ041-046>049-061>064-073>077-083>087-082200-
SOUTH CENTRAL NEBRASKA

CITY           SKY/WX    TMP DP  RH WIND       PRES   REMARKS
GRAND ISLAND   SUNNY     23   5  46 NW13      30.60S WCI  11
AURORA         SUNNY     24   5  44 NW14      30.59S WCI  12
HASTINGS       SUNNY     24   4  42 NW15      30.60S WCI  11
HEBRON         SUNNY     26   8  47 NW9       30.63S WCI  16
HOLDREGE       SUNNY     23   3  42 NW6       30.58F WCI  16
KEARNEY *      SUNNY     25   1  36 NW9       30.59S WCI  15
YORK           SUNNY     23   7  50 NW12      30.60S WCI  12
$$

NEZ011>018-030>034-042>045-082200-
NORTHEAST NEBRASKA

CITY           SKY/WX    TMP DP  RH WIND       PRES   REMARKS
NORFOLK        SUNNY     22   5  48 NW15      30.57S WCI   9
ALBION         SUNNY     23   4  43 NW10G16   30.58S WCI  12
BLAIR          SUNNY     24  10  53 NW17      30.57R WCI  11
FREMONT        SUNNY     25   9  50 NW20G26   30.60R WCI  10
TEKAMAH        SUNNY     25   9  50 NW20      30.59S WCI  11
WAYNE          SUNNY     22   7  52 NW16      30.58R WCI   9
$$

NEZ050>053-065>068-078-088>093-082200-
SOUTHEAST NEBRASKA

CITY           SKY/WX    TMP DP  RH WIND       PRES   REMARKS
LINCOLN        SUNNY     27   8  44 N14       30.62S WCI  16
OMAHA EPPLEY   MOSUNNY   25   8  48 NW15      30.60R WCI  13
BEATRICE       SUNNY     26   9  47 NW14G20   30.61S WCI  15
FALLS CITY     SUNNY     25   9  50 NW15      30.61S WCI  13
NEBRASKA CITY  SUNNY     25   6  43 N12       30.60S WCI  14
PLATTSMOUTH    MOSUNNY   24   6  45 NW14      30.59S WCI  12
$$

NEZ044-045-051>053-067-082200-
OMAHA AREA

CITY           SKY/WX    TMP DP  RH WIND       PRES   REMARKS
OMAHA EPPLEY   MOSUNNY   25   8  48 NW15      30.60R WCI  13
BLAIR          SUNNY     24  10  53 NW17      30.57R WCI  11
FREMONT        SUNNY     25   9  50 NW20G26   30.60R WCI  10
MILLARD        SUNNY     26  10  50 NW10G22   30.60S WCI  17
OFFUTT AFB     SUNNY     25   8  49 NW16      30.60R WCI  12
PLATTSMOUTH    MOSUNNY   24   6  45 NW14      30.59S WCI  12
WAHOO          FAIR      26   8  47 N16G22    30.60R WCI  13
$$




USA.gov is the U.S. government's official web portal to all federal, state and local government web resources and services.